Location: Arrien
(43.3167°N, 0.1500°W)
Time: 19:05:45
(UTC+00:00)

Cosmos 1544 Rocket - Pass Details

Date: 31 May 2022
Orbit: 603 x 631 km, 82.5° (Epoch: 30 June)

Event Time Altitude Azimuth Distance (km) Brightness Sun altitude
Rises 00:50:51 0° 356° (N) 2,906 8.2 -23.7°
Reaches altitude 10° 00:53:09 10° 2° (N) 1,990 7.2 -23.6°
Maximum altitude 00:57:27 51° 79° (ENE) 778 4.1 -23.4°
Enters shadow 00:58:12 45° 113° (ESE) 841 4.1 -23.4°
